Precipitable_Water
0.86 0.92 0.97 1.01 1.07 1.15 1.22 1.28 1.31 1.33 1.45 1.30 1.24 1.23 1.17 1.07 0.99 0.90 0.83 0.78 0.78 0.76 0.77 0.76 0.76 0.74 0.70 0.66 0.61 0.58 0.54 0.49
0.91 0.98 1.04 1.08 1.15 1.18 1.23 1.24 1.31 1.30 1.19 1.12 1.05 0.93 0.86 0.77 0.77 0.79 0.80 0.81 0.81 0.78 0.74 0.73 0.71 0.67 0.62 0.58 0.50 0.43 0.40 0.43
0.91 0.99 1.03 1.06 1.11 1.16 1.21 1.21 1.14 1.09 1.02 0.91 0.84 0.82 0.79 0.81 0.82 0.83 0.83 0.82 0.79 0.75 0.74 0.71 0.66 0.57 0.52 0.47 0.42 0.37 0.36 0.38
0.80 0.88 0.96 1.03 1.05 1.05 1.04 1.01 0.98 0.93 0.89 0.88 0.87 0.84 0.81 0.80 0.83 0.83 0.84 0.82 0.79 0.76 0.70 0.63 0.55 0.48 0.41 0.41 0.39 0.37 0.33 0.35
0.79 0.76 0.79 0.82 0.85 0.89 0.89 0.92 0.91 0.89 0.89 0.85 0.81 0.78 0.79 0.85 0.84 0.83 0.81 0.80 0.73 0.66 0.59 0.51 0.46 0.45 0.43 0.41 0.40 0.40 0.38 0.32
0.69 0.70 0.72 0.76 0.81 0.82 0.84 0.85 0.85 0.88 0.87 0.86 0.84 0.81 0.84 0.85 0.82 0.78 0.76 0.72 0.65 0.54 0.49 0.48 0.47 0.47 0.46 0.45 0.43 0.42 0.40 0.37
0.68 0.71 0.75 0.77 0.84 0.87 0.87 0.84 0.84 0.86 0.87 0.87 0.85 0.82 0.78 0.71 0.68 0.65 0.60 0.56 0.52 0.49 0.48 0.49 0.49 0.48 0.47 0.46 0.46 0.43 0.42 0.42
0.67 0.69 0.73 0.79 0.80 0.82 0.83 0.83 0.82 0.85 0.84 0.82 0.79 0.73 0.69 0.66 0.65 0.59 0.52 0.46 0.45 0.47 0.50 0.51 0.50 0.49 0.51 0.50 0.47 0.44 0.44 0.43
0.68 0.73 0.75 0.76 0.77 0.79 0.80 0.82 0.80 0.79 0.76 0.72 0.74 0.71 0.69 0.66 0.60 0.52 0.48 0.46 0.47 0.49 0.49 0.51 0.51 0.51 0.51 0.49 0.46 0.45 0.45 0.46
0.71 0.73 0.73 0.76 0.79 0.80 0.83 0.81 0.76 0.72 0.71 0.70 0.70 0.71 0.68 0.57 0.54 0.52 0.51 0.52 0.50 0.49 0.50 0.49 0.48 0.47 0.49 0.46 0.45 0.44 0.42 0.43
0.70 0.70 0.73 0.78 0.81 0.83 0.82 0.76 0.71 0.68 0.66 0.69 0.70 0.68 0.57 0.53 0.51 0.47 0.45 0.43 0.41 0.41 0.40 0.40 0.41 0.43 0.45 0.44 0.43 0.42 0.42 0.40
0.66 0.68 0.72 0.76 0.78 0.77 0.73 0.70 0.67 0.66 0.68 0.73 0.64 0.53 0.46 0.44 0.42 0.39 0.36 0.34 0.32 0.31 0.31 0.34 0.36 0.37 0.42 0.42 0.44 0.41 0.36 0.38
0.64 0.66 0.67 0.68 0.68 0.70 0.71 0.71 0.68 0.71 0.73 0.54 0.45 0.42 0.42 0.38 0.35 0.34 0.34 0.32 0.32 0.31 0.33 0.34 0.35 0.37 0.40 0.37 0.35 0.37 0.37 0.37
0.61 0.63 0.65 0.66 0.68 0.69 0.65 0.67 0.65 0.61 0.50 0.45 0.42 0.39 0.36 0.35 0.34 0.34 0.34 0.33 0.33 0.33 0.34 0.34 0.35 0.36 0.36 0.36 0.37 0.38 0.38 0.36
0.58 0.59 0.62 0.64 0.64 0.62 0.60 0.61 0.58 0.47 0.44 0.41 0.35 0.35 0.37 0.36 0.35 0.34 0.34 0.35 0.34 0.34 0.35 0.35 0.35 0.36 0.35 0.35 0.35 0.35 0.34 0.33
0.54 0.56 0.59 0.59 0.56 0.54 0.61 0.51 0.47 0.48 0.40 0.35 0.35 0.39 0.38 0.36 0.35 0.35 0.35 0.35 0.34 0.34 0.33 0.34 0.34 0.34 0.33 0.34 0.33 0.33 0.32 0.30
0.51 0.54 0.55 0.53 0.52 0.55 0.48 0.50 0.44 0.40 0.35 0.34 0.36 0.36 0.35 0.35 0.33 0.33 0.34 0.34 0.35 0.35 0.33 0.33 0.33 0.33 0.32 0.32 0.31 0.32 0.28 0.22
0.50 0.52 0.51 0.51 0.50 0.49 0.44 0.44 0.42 0.37 0.35 0.34 0.32 0.32 0.31 0.31 0.31 0.32 0.33 0.33 0.33 0.33 0.35 0.35 0.34 0.35 0.33 0.33 0.32 0.28 0.22 0.21
0.50 0.51 0.50 0.50 0.47 0.47 0.48 0.43 0.38 0.36 0.34 0.32 0.31 0.30 0.28 0.29 0.31 0.32 0.31 0.31 0.32 0.31 0.33 0.36 0.35 0.34 0.33 0.33 0.29 0.23 0.22 0.22
Wind_Speed
8 9 10 11 13 14 15 16 17 18 21 20 19 17 17 17 17 18 20 21 23 25 27 29 30 31 31 32 33 34 35 36
8 9 10 11 13 15 16 17 17 20 20 18 16 16 16 17 18 20 22 24 26 29 30 30 31 31 33 34 35 36 37 38
9 10 10 11 11 12 13 14 15 15 16 15 15 17 19 20 22 23 25 27 30 31 31 32 33 34 35 35 36 38 39 40
8 8 8 8 8 9 10 11 11 12 13 15 17 19 21 22 24 26 28 30 31 31 32 33 34 35 36 37 39 41 42 43
8 7 6 6 6 7 8 10 11 13 15 17 19 21 23 24 26 28 30 31 32 33 35 35 36 37 39 40 42 43 44 45
8 7 6 5 6 7 8 10 12 14 16 17 19 21 22 25 27 30 32 33 34 35 36 37 39 40 42 43 44 45 46 47
8 7 6 6 7 9 11 12 13 14 16 18 20 22 24 26 29 31 33 35 36 37 38 40 42 43 44 45 46 48 48 48
9 8 8 9 10 11 11 12 14 16 18 20 21 23 25 28 30 33 35 36 38 39 41 42 43 45 46 46 47 48 49 49
9 9 10 11 11 13 14 15 16 18 20 21 23 26 29 31 33 35 37 38 40 42 43 44 45 47 47 47 48 49 49 48
10 11 12 13 14 15 16 17 18 20 22 24 27 29 31 33 36 37 38 40 41 43 45 46 47 48 48 49 49 49 49 47
12 13 14 15 15 16 17 18 20 22 25 27 30 32 34 35 36 37 39 41 42 44 46 48 49 49 49 49 49 48 47 44
13 14 15 16 16 17 18 20 22 25 28 31 31 33 35 36 37 38 40 42 44 46 48 49 49 50 49 48 47 47 44 38
15 16 16 17 18 19 21 22 25 29 30 30 33 34 36 37 38 39 41 44 46 48 48 49 49 48 47 47 46 43 36 32
17 18 19 20 20 22 23 25 28 29 30 33 35 36 37 38 39 41 43 45 47 48 48 49 48 46 45 42 39 35 30 29
19 20 20 21 22 23 25 28 29 31 33 35 36 37 38 39 41 42 45 46 47 48 48 48 45 44 41 37 32 29 28 27
21 21 22 23 23 25 28 29 31 33 35 36 37 37 39 40 42 44 46 47 47 48 47 45 43 40 35 32 29 27 26 27
21 22 23 23 25 27 29 31 32 34 35 36 37 38 40 42 43 45 47 47 47 46 45 43 40 36 33 30 27 27 26 26
23 23 24 25 26 28 29 31 33 34 36 36 38 40 41 43 45 46 47 48 47 46 44 42 37 34 30 26 25 25 24 25
24 24 25 26 27 28 30 32 34 35 36 37 39 41 43 44 45 46 47 47 46 45 42 38 34 30 26 25 24 22 23 25
Wind_Direction
228 238 246 249 252 255 260 265 268 272 278 279 280 282 287 295 299 301 303 304 304 304 304 303 303 302 303 302 301 300 300 298
244 252 255 257 258 260 263 268 271 278 284 286 283 286 291 297 302 303 304 305 305 306 305 305 305 304 304 303 302 302 301 300
253 258 259 260 259 261 263 270 275 278 282 283 285 287 293 297 300 303 306 307 308 307 306 305 306 305 305 305 304 304 303 302
252 257 257 255 258 263 270 275 281 284 284 286 290 292 296 298 300 303 306 307 308 307 307 306 305 305 304 305 304 304 302 302
248 242 243 251 263 273 276 282 286 288 289 291 291 294 296 298 300 303 305 307 307 307 306 306 305 305 304 304 304 303 303 302
227 226 237 249 269 281 289 295 297 298 297 298 298 300 301 302 303 304 305 306 307 307 306 306 305 304 304 304 304 304 303 302
214 222 235 259 279 288 294 297 299 301 303 304 303 303 304 305 305 305 306 306 307 307 306 306 305 305 305 305 305 304 304 303
217 230 252 272 282 288 294 298 301 303 305 305 305 306 306 307 307 307 307 307 307 307 307 307 306 306 305 305 305 304 304 302
232 251 268 276 284 288 291 296 301 303 305 305 305 307 307 307 307 307 307 307 308 308 308 307 307 306 304 304 304 304 304 302
248 262 273 279 285 290 293 295 299 302 304 306 305 307 308 308 308 308 307 307 308 308 308 307 307 306 304 304 304 304 303 301
259 271 279 283 288 291 293 296 299 302 304 306 306 307 309 310 309 309 309 310 310 310 310 309 308 307 305 305 304 304 303 303
265 274 281 284 288 291 293 297 302 305 306 306 306 308 310 310 310 310 311 312 312 312 311 310 309 308 306 305 304 304 303 299
268 276 280 283 287 292 296 298 303 305 305 306 308 308 309 310 310 311 312 313 313 313 312 311 311 309 307 306 305 303 299 296
272 277 281 284 288 292 295 299 302 305 306 307 308 309 309 310 311 312 313 314 314 314 313 313 312 310 309 308 307 304 298 297
275 279 281 285 287 291 295 299 302 304 306 307 308 309 309 310 311 312 313 314 315 315 314 314 313 312 310 308 307 305 301 298
276 278 281 285 288 292 296 299 302 304 306 307 308 309 310 311 312 313 314 315 315 315 315 315 314 312 311 308 306 304 302 301
276 279 283 285 289 294 297 300 303 305 307 308 309 309 311 311 312 313 314 315 315 315 314 314 313 311 310 307 304 304 302 303
278 280 283 287 291 295 298 302 305 306 308 309 310 311 311 312 313 313 314 315 315 314 313 312 310 309 308 305 304 304 304 306
280 282 285 289 293 296 299 303 306 307 308 309 311 312 312 313 313 313 314 315 315 315 313 311 309 307 305 304 304 304 306 310